H-2A DEB (43673 NORAD) Tracking and Keplerian Element Data

This shows tracking and keplerian element data for the satellite.

Feedback or suggestion? Click here.




ElementValue
Catalog43673
NameH-2A DEB
Epoch Orbit441
Epoch Day331.95106531
Epoch Year2018
RAAN82.1559
Inclination97.845
Eccentricity0.0015618
Argument of Perigee187.3113
Mean Anonmoly172.7876
Mean Motion14.87478735
Decay Rate9.04E-06
L11 43673U 18084C 18331.95106531 .00000904 00000-0 10565-3 0 9993
L22 43673 97.8450 82.1559 0015618 187.3113 172.7876 14.87478735 4414

Live tracking and technical data element details for H-2A DEB (NORAD 43673). H-2A DEB can be tracked NOW for your location showing map with azimuth and elevation plus other details from your city location.

Track the satellite on the map from your city or location and see movement details for azimuth, elevation, latitude, longitude, range, height, and movement on the map or in text.







IsCatalogInMostPopularTable: catalog: 43673, numindb: 74
Update: records affected: 1



GetName: 43673 H-2A DEB

Hit Count: updated at: Thu, 25 Apr 2019 20:15:01 GMT